| time (UTC) | temp C | wind direction | speed KPH | gust KPH | rain 1hr cm | rain 24hr cm | rain mn cm | humidity % | barometer mb |
| 20260504100610 | 8 | 300 | 0.0 | 3.2 | 0.00 | 0.00 | 0.00 | 66 | 1013.7 |
| 20260504081528 | 10 | 0 | 0.0 | 0.0 | 0.00 | 0.00 | 0.00 | 63 | 1013.4 |
| 20260504080618 | 10 | 0 | 0.0 | 0.0 | 0.00 | 0.00 | 0.00 | 64 | 1013.4 |
| 20260504050535 | 18 | 276 | 1.6 | 9.7 | 0.00 | 0.00 | 0.00 | 31 | 1013.2 |
| 20260504045605 | 18 | 281 | 1.6 | 8.0 | 0.00 | 0.00 | 0.00 | 31 | 1013.2 |
| 20260504044524 | 18 | 280 | 0.0 | 4.8 | 0.00 | 0.00 | 0.00 | 32 | 1013.2 |
| 20260504043553 | 18 | 275 | 0.0 | 6.4 | 0.00 | 0.00 | 0.00 | 31 | 1013.1 |
| 20260504042624 | 18 | 290 | 0.0 | 4.8 | 0.00 | 0.00 | 0.00 | 31 | 1013.1 |
| 20260504041543 | 17 | 276 | 0.0 | 4.8 | 0.00 | 0.00 | 0.00 | 34 | 1013.0 |
| 20260504040613 | 17 | 286 | 1.6 | 6.4 | 0.00 | 0.00 | 0.00 | 34 | 1013.0 |
| 20260504035532 | 17 | 280 | 0.0 | 4.8 | 0.00 | 0.00 | 0.00 | 34 | 1012.9 |
| 20260504034602 | 16 | 282 | 0.0 | 4.8 | 0.00 | 0.00 | 0.00 | 38 | 1012.8 |
| 20260504033542 | 16 | 278 | 0.0 | 3.2 | 0.00 | 0.00 | 0.00 | 41 | 1012.7 |
| 20260504032552 | 17 | 276 | 0.0 | 4.8 | 0.00 | 0.00 | 0.00 | 36 | 1012.6 |
| 20260504031622 | 17 | 281 | 0.0 | 4.8 | 0.00 | 0.00 | 0.00 | 35 | 1012.6 |
| 20260504030542 | 18 | 270 | 0.0 | 4.8 | 0.00 | 0.00 | 0.00 | 32 | 1012.6 |
| 20260504025612 | 19 | 270 | 0.0 | 4.8 | 0.00 | 0.00 | 0.00 | 30 | 1012.7 |
| 20260504024531 | 20 | 273 | 0.0 | 6.4 | 0.00 | 0.00 | 0.00 | 27 | 1012.7 |
| 20260504023622 | 21 | 274 | 0.0 | 8.0 | 0.00 | 0.00 | 0.00 | 25 | 1012.8 |
| 20260504022541 | 21 | 309 | 1.6 | 12.9 | 0.00 | 0.00 | 0.00 | 23 | 1012.8 |
| 20260504021631 | 21 | 288 | 1.6 | 6.4 | 0.00 | 0.00 | 0.00 | 25 | 1012.7 |
| 20260504020621 | 21 | 295 | 0.0 | 6.4 | 0.00 | 0.00 | 0.00 | 23 | 1012.8 |
| 20260504015541 | 22 | 288 | 0.0 | 3.2 | 0.00 | 0.00 | 0.00 | 24 | 1012.7 |
| 20260504014610 | 22 | 297 | 0.0 | 4.8 | 0.00 | 0.00 | 0.00 | 23 | 1012.8 |
| 20260504013530 | 22 | 288 | 1.6 | 9.7 | 0.00 | 0.00 | 0.00 | 22 | 1012.8 |
| 20260504012600 | 22 | 289 | 0.0 | 8.0 | 0.00 | 0.00 | 0.00 | 22 | 1012.8 |
| 20260504011517 | 23 | 294 | 0.0 | 8.0 | 0.00 | 0.00 | 0.00 | 22 | 1012.9 |
| 20260504010547 | 23 | 286 | 1.6 | 9.7 | 0.00 | 0.00 | 0.00 | 22 | 1013.0 |
| 20260504005616 | 23 | 264 | 0.0 | 8.0 | 0.00 | 0.00 | 0.00 | 23 | 1013.0 |
| 20260504004536 | 23 | 297 | 1.6 | 8.0 | 0.00 | 0.00 | 0.00 | 22 | 1013.0 |
| 20260504003607 | 23 | 352 | 1.6 | 9.7 | 0.00 | 0.00 | 0.00 | 23 | 1013.1 |
| 20260504002527 | 23 | 309 | 1.6 | 11.3 | 0.00 | 0.00 | 0.00 | 24 | 1013.2 |
| 20260504001557 | 23 | 309 | 1.6 | 12.9 | 0.00 | 0.00 | 0.00 | 24 | 1013.2 |
| 20260504000515 | 23 | 282 | 1.6 | 9.7 | 0.00 | 0.00 | 0.00 | 24 | 1013.3 |
| 20260503235546 | 23 | 295 | 1.6 | 14.5 | 0.00 | 0.00 | 0.00 | 25 | 1013.4 |
| 20260503234616 | 23 | 300 | 1.6 | 12.9 | 0.00 | 0.00 | 0.00 | 25 | 1013.5 |
| 20260503233556 | 23 | 307 | 1.6 | 11.3 | 0.00 | 0.00 | 0.00 | 25 | 1013.5 |
| 20260503232607 | 23 | 254 | 0.0 | 8.0 | 0.00 | 0.00 | 0.00 | 26 | 1013.6 |
| 20260503231526 | 23 | 300 | 1.6 | 11.3 | 0.00 | 0.00 | 0.00 | 26 | 1013.6 |
| 20260503230556 | 23 | 322 | 1.6 | 12.9 | 0.00 | 0.00 | 0.00 | 25 | 1013.7 |
| 20260503225535 | 24 | 313 | 1.6 | 12.9 | 0.00 | 0.00 | 0.00 | 26 | 1013.8 |
| 20260503224545 | 23 | 306 | 1.6 | 11.3 | 0.00 | 0.00 | 0.00 | 24 | 1013.9 |
| 20260503223616 | 23 | 310 | 1.6 | 11.3 | 0.00 | 0.00 | 0.00 | 24 | 1014.0 |
| 20260503222535 | 23 | 314 | 1.6 | 14.5 | 0.00 | 0.00 | 0.00 | 26 | 1014.1 |
| 20260503221605 | 23 | 312 | 1.6 | 16.1 | 0.00 | 0.00 | 0.00 | 26 | 1014.2 |
| 20260503220525 | 24 | 293 | 0.0 | 6.4 | 0.00 | 0.00 | 0.00 | 26 | 1014.3 |
| 20260503215615 | 23 | 315 | 1.6 | 9.7 | 0.00 | 0.00 | 0.00 | 25 | 1014.3 |
| 20260503214625 | 23 | 305 | 1.6 | 12.9 | 0.00 | 0.00 | 0.00 | 26 | 1014.4 |
| 20260503213545 | 23 | 335 | 1.6 | 11.3 | 0.00 | 0.00 | 0.00 | 27 | 1014.5 |
| 20260503212615 | 23 | 290 | 1.6 | 11.3 | 0.00 | 0.00 | 0.00 | 26 | 1014.6 |
| 20260503211535 | 23 | 310 | 1.6 | 9.7 | 0.00 | 0.00 | 0.00 | 26 | 1014.7 |
| 20260503210605 | 23 | 303 | 0.0 | 4.8 | 0.00 | 0.00 | 0.00 | 28 | 1014.8 |
| 20260503205525 | 23 | 358 | 0.0 | 8.0 | 0.00 | 0.00 | 0.00 | 30 | 1015.0 |
| 20260503204555 | 22 | 23 | 0.0 | 4.8 | 0.00 | 0.00 | 0.00 | 30 | 1015.1 |
| 20260503203625 | 22 | 281 | 0.0 | 8.0 | 0.00 | 0.00 | 0.00 | 30 | 1015.3 |
| 20260503202543 | 23 | 316 | 0.0 | 4.8 | 0.00 | 0.00 | 0.00 | 30 | 1015.4 |
| 20260503201613 | 23 | 292 | 1.6 | 9.7 | 0.00 | 0.00 | 0.00 | 31 | 1015.6 |
| 20260503200533 | 22 | 333 | 0.0 | 6.4 | 0.00 | 0.00 | 0.00 | 30 | 1015.7 |
| 20260503195603 | 22 | 245 | 0.0 | 4.8 | 0.00 | 0.00 | 0.00 | 31 | 1015.8 |
| 20260503194523 | 22 | 345 | 0.0 | 8.0 | 0.00 | 0.00 | 0.00 | 33 | 1016.0 |
| 20260503193613 | 21 | 318 | 1.6 | 8.0 | 0.00 | 0.00 | 0.00 | 32 | 1016.2 |
| 20260503192624 | 21 | 330 | 0.0 | 6.4 | 0.00 | 0.00 | 0.00 | 33 | 1016.3 |
| 20260503191543 | 21 | 33 | 0.0 | 4.8 | 0.00 | 0.00 | 0.00 | 33 | 1016.4 |
| 20260503190613 | 20 | 346 | 0.0 | 4.8 | 0.00 | 0.00 | 0.00 | 35 | 1016.5 |
| 20260503185532 | 20 | 11 | 0.0 | 3.2 | 0.00 | 0.00 | 0.00 | 36 | 1016.7 |
| 20260503184623 | 18 | 185 | 0.0 | 4.8 | 0.00 | 0.00 | 0.00 | 40 | 1016.8 |
| 20260503183523 | 18 | 0 | 0.0 | 1.6 | 0.00 | 0.00 | 0.00 | 41 | 1016.9 |
| 20260503182553 | 17 | 0 | 0.0 | 0.0 | 0.00 | 0.00 | 0.00 | 42 | 1017.0 |
| 20260503181623 | 17 | 0 | 0.0 | 0.0 | 0.00 | 0.00 | 0.00 | 42 | 1017.1 |
| 20260503180542 | 17 | 180 | 0.0 | 4.8 | 0.00 | 0.00 | 0.00 | 44 | 1017.2 |
| 20260503175613 | 16 | 180 | 0.0 | 3.2 | 0.00 | 0.00 | 0.00 | 45 | 1017.4 |
| 20260503174532 | 15 | 180 | 0.0 | 3.2 | 0.00 | 0.00 | 0.00 | 45 | 1017.5 |
| 20260503173602 | 15 | 216 | 0.0 | 3.2 | 0.00 | 0.00 | 0.00 | 46 | 1017.6 |
| 20260503172521 | 15 | 338 | 0.0 | 3.2 | 0.00 | 0.00 | 0.00 | 46 | 1017.8 |
| 20260503171551 | 14 | 22 | 0.0 | 3.2 | 0.00 | 0.00 | 0.00 | 46 | 1018.0 |
| 20260503170621 | 13 | 336 | 0.0 | 4.8 | 0.00 | 0.00 | 0.00 | 49 | 1018.1 |
| 20260503150623 | 9 | 0 | 0.0 | 0.0 | 0.00 | 0.00 | 0.00 | 59 | 1018.6 |
| 20260503130520 | 4 | 0 | 0.0 | 0.0 | 0.00 | 0.00 | 0.00 | 78 | 1018.5 |
| 20260503110529 | 5 | 0 | 0.0 | 0.0 | 0.00 | 0.00 | 0.00 | 74 | 1018.4 |